Regional Weather Roundup
Issued by NWS Charleston, SC

Home | Current Version | Previous Version | Text Only | Print | Product List | Glossary On
Versions: 1 2 3 4 5 6 7 8 9 10 11 12 13 14 15 16 17 18 19 20 21 22 23 24 25 26 27 28 29 30 31 32 33 34 35 36 37 38 39 40 41 42 43 44 45 46 47 48 49 50
000
ASUS42 KCHS 212125
RWRCHS

REGIONAL WEATHER ROUNDUP
NATIONAL WEATHER SERVICE CHARLESTON SC
500 PM EDT TUE OCT 21 2014

NOTE: "FAIR" INDICATES FEW OR NO CLOUDS BELOW 12,000 FEET WITH NO
SIGNIFICANT WEATHER AND/OR OBSTRUCTIONS TO VISIBILITY.

NOT ALL STATIONS ARE QUALITY CONTROLLED BY THE NATIONAL
WEATHER SERVICE. USE DATA WITH CAUTION...ESPECIALLY
DEWPOINT OBSERVATIONS.

SCZ027-030-031-034>040-042>050-212200-
...SOUTH CAROLINA...

CITY           SKY/WX    TMP DP  RH WIND       PRES   REMARKS
N CHARLESTON   MOSUNNY   79  54  41 W9        29.87S
WATERFRONT PRK   N/A     79 N/A N/A SW6         N/A
FORT JOHNSON   NOT AVBL
JOHNS ISLAND   CLEAR     79  57  47 SW6       29.88R
PINOPOLIS      NOT AVBL
MONCKS CORNER  FAIR      79  57  47 W5        29.86S
SUMMERVILLE    FAIR      79  54  41 W7        29.87S
BEAUFORT MCAS  SUNNY     79  54  41 W9        29.88S
BEAUFORT ARPT  FAIR      79  57  47 W9        29.88S
HILTON HEAD IS NOT AVBL
GEORGETOWN     NOT AVBL
WALTERBORO     CLEAR     79  41  25 W7        29.88S
ORANGEBURG     SUNNY     78  45  30 NW8       29.86F
BARNWELL       FAIR      79  45  29 W9        29.87S
AIKEN          FAIR      75  54  46 W16       29.91S
MANNING        FAIR      79  50  36 SW5       29.86S
KINGSTREE      NOT AVBL
COLUMBIA       MOSUNNY   78  46  32 W15       29.85S
SUMTER         SUNNY     77  47  34 W9        29.84S
FLORENCE       SUNNY     77  46  33 W10       29.84S
MYRTLE BEACH   MOSUNNY   79  52  38 W8        29.85R
N MYRTLE BEACH SUNNY     74  57  55 S13       29.84S

$$

GAZ063-065-086>088-099>101-113>116-118-119-134-136>141-150-212200-
...GEORGIA...

CITY           SKY/WX    TMP DP  RH WIND       PRES   REMARKS
SAVANNAH ARPT  SUNNY     80  52  37 W9        29.89F
HUNTER AAF     SUNNY     79  56  45 W8        29.87F
FORT STEWART   SUNNY     80  53  39 SW6       29.88F
STATESBORO     NOT AVBL
SYLVANIA       CLEAR     83  53  34 W6        29.88F
CLAXTON        FAIR      79  52  38 W6        29.89F
THOMSON        SUNNY     77  59  52 W5        29.94S
AUGUSTA-BUSH   SUNNY     79  47  32 W10       29.88S
AUGUSTA-DANIEL SUNNY     78  49  35 W10G21    29.89S
SWAINSBORO     FAIR      81  50  34 W7        29.90F
VIDALIA        SUNNY     79  52  38 W7        29.90F
ALMA           SUNNY     80  51  36 W8        29.91F
WAYCROSS       SUNNY     83  52  35 NW6       29.91S
JESUP          FAIR      82  55  39 W3        29.90F
BRUNSWICK      SUNNY     81  50  34 W5        29.91R
SAINT SIMONS   SUNNY     76  62  62 S7        29.90S

$$

SCZ027-028-034-036>038-045-046-048>050-GAZ119-141-212200-
...LAKE AND SUPPLEMENTAL COASTAL OBSERVATIONS...

STATION/POSITION TIME  TEMP    WIND        PRES    WAVE   SWELL
                       AIR SEA DIR/SP/G            HT/PER HT/PER/DIR
                 (UTC) (F)     (DEG/KT/KT) (MB)    (FT/S) (FT/S/D)
UPR LAKE MARION  NOT AVBL
WINYAH BAY       2100   76     250/  8     1011.0S
LAKE MURRAY      2000   76     260/  9/ 16 1010.5S
ACE BASIN NERRS  2100   78     270/  3     1012.0S
FORT PULASKI     2100   78     230/  6/  8 1012.2F
SAPELO ISLAND    NOT AVBL

$$

ANZ835-935-AMZ111-154-330-350-352-354-374-450-454-472-212200-
...C-MAN AND BUOY OBSERVATIONS...

STATION/POSITION TIME  TEMP    WIND        PRES    WAVE   SWELL
                       AIR SEA DIR/SP/G            HT/PER HT/PER/DIR
                 (UTC) (F)     (DEG/KT/KT) (MB)    (FT/S) (FT/S/D)
FOLLY BEACH CMAN 2100   74     210/ 13/ 15 1012.1R
BUOY 41004       2100   74 80  230/ 10/ 12 1011.4F   2/ 9   2/ 9
BUOY 41008       2100   74 77  180/  4/  6 1012.6F   2/ 8   2/100/ 8
5E ST. MARYS GA  2100      78                N/A     2/ 9
FRYING PAN BUOY  2100   72 76  240/  8/ 10 1011.8F   2/10   2/ 80/10
BUOY 41025       2100   73     210/ 12/ 16 1010.6F   3/ 5   2/140/ 9
CAPE LOOKOUT NC  2100   72     220/  7/  9 1010.6R
BUOY 41002       2034   77 80  170/  8/ 10 1012.3F   4/10   3/100/10
BUOY 41010       2100   78 80  340/  8/ 12 1013.0F   2/ 9   2/ 50/ 9
BUOY 41012       NOT AVBL
ST AUGUSTINE FL  2100   76      70/  5/  6 1013.7F
CAPERS NEARSHORE 2000   74     220/ 12/ 14   N/A
FRIPP NEARSHORE  NOT AVBL


$$



USA.gov is the U.S. government's official web portal to all federal, state and local government web resources and services.